Location: Zagreb
(45.8000°N, 16.0000°E)
Time: 03:44:04
(UTC+01:00)

Vanguard 2 - Visible Passes

Search period start: 25 January 2020 00:00
Search period end: 04 February 2020 00:00
Orbit: 553 x 2938 km, 32.9° (Epoch: 24 January)

Date Brightness Start Highest point End Pass type
(mag) Time Alt. Az. Time Alt. Az. Time Alt. Az.
31 Jan 12.3 05:51:53 10° SSE 05:58:51 14° SE 06:05:22 10° ESE visible
01 Feb 12.1 06:05:51 10° S 06:16:20 19° SE 06:25:46 10° ESE visible
02 Feb 12.0 06:21:14 10° SSW 06:33:50 25° SSE 06:44:56 10° E visible
03 Feb 12.2 04:37:31 10° SSE 04:41:44 11° SE 04:45:54 10° ESE visible
03 Feb 11.9 06:37:19 10° SSW 06:51:22 30° SSE 07:03:32 10° E visible
